DW8039 Weather Reports


time (UTC)temp
F
wind
direction
speed
knots
gust
knots
rain 1hr
in
rain 24hr
in
rain mn
in
humidity
%
barometer
mb
20260508013904 52 106 2.6 7.8 0.00 0.02 0.00 82 1014.6
20260508013404 52 104 2.6 7.0 0.00 0.02 0.00 83 1014.7
20260508012904 52 113 3.5 7.8 0.00 0.02 0.00 83 1014.7
20260508012403 52 77 1.7 7.8 0.00 0.02 0.00 83 1014.8
20260508010903 52 109 1.7 5.2 0.00 0.02 0.00 81 1014.9
20260508010403 52 108 2.6 7.8 0.00 0.02 0.00 81 1014.9
20260508005904 52 120 1.7 7.0 0.00 0.02 0.00 81 1015.0
20260508005404 52 100 1.7 10.4 0.00 0.02 0.00 80 1015.0
20260508002903 52 106 2.6 6.1 0.00 0.02 0.00 77 1015.0
20260508002404 52 68 1.7 7.8 0.00 0.02 0.00 76 1015.0
20260508000904 52 99 3.5 7.8 0.00 0.02 0.00 77 1015.1
20260508000405 52 106 1.7 7.8 0.00 0.02 0.00 78 1015.2
20260507235404 52 115 2.6 7.8 0.00 0.02 0.00 79 1015.3
20260507233904 52 130 1.7 2.6 0.00 0.02 0.00 80 1015.3
20260507233404 52 112 1.7 7.0 0.00 0.02 0.00 80 1015.3
20260507232903 52 94 1.7 6.1 0.00 0.02 0.00 80 1015.3
20260507232404 52 132 0.9 8.7 0.00 0.02 0.00 80 1015.2
20260507230404 52 107 3.5 10.4 0.00 0.02 0.00 78 1015.4
20260507223404 52 116 2.6 7.8 0.00 0.02 0.02 74 1015.4
20260507222903 52 113 2.6 7.8 0.00 0.02 0.02 73 1015.4
20260507222404 52 129 3.5 10.4 0.00 0.02 0.02 73 1015.4
20260507220904 52 124 3.5 10.4 0.00 0.02 0.02 74 1015.5
20260507220404 52 104 1.7 10.4 0.00 0.02 0.02 74 1015.5
20260507215904 52 114 1.7 8.7 0.00 0.02 0.02 76 1015.5
20260507215403 52 109 1.7 8.7 0.00 0.02 0.02 76 1015.5
20260507213403 52 101 3.5 8.7 0.00 0.02 0.02 77 1015.5
20260507212403 52 103 2.6 8.7 0.00 0.02 0.02 77 1015.6
20260507210404 52 123 2.6 8.7 0.00 0.02 0.02 78 1015.6
20260507205904 52 126 1.7 10.4 0.00 0.02 0.02 79 1015.5
20260507205404 52 125 0.9 10.4 0.00 0.02 0.02 79 1015.5
20260507203404 52 111 1.7 6.1 0.02 0.02 0.02 79 1015.5
20260507202904 52 78 1.7 5.2 0.02 0.02 0.02 79 1015.4
20260507200904 53 92 1.7 2.6 0.02 0.02 0.02 76 1015.2
20260507200404 53 91 0.9 4.3 0.02 0.02 0.02 75 1015.2
20260507195404 54 101 2.6 8.7 0.02 0.02 0.02 72 1015.1
20260507193904 54 96 0.9 2.6 0.00 0.00 0.00 67 1015.0
20260507193404 54 87 2.6 7.0 0.00 0.00 0.00 66 1015.0
20260507192403 55 148 0.0 7.0 0.00 0.00 0.00 66 1014.9
20260507190904 55 116 1.7 6.1 0.00 0.00 0.00 65 1014.9
20260507190404 55 109 0.9 4.3 0.00 0.00 0.00 64 1014.9
20260507185904 55 119 0.9 7.8 0.00 0.00 0.00 64 1015.0
20260507185403 55 122 1.7 7.0 0.00 0.00 0.00 63 1015.0
20260507183403 55 130 0.0 5.2 0.00 0.00 0.00 62 1015.0
20260507182904 55 139 1.7 7.0 0.00 0.00 0.00 61 1015.0
20260507182403 55 121 0.9 8.7 0.00 0.00 0.00 61 1014.9
20260507180903 56 113 3.5 7.0 0.00 0.00 0.00 59 1014.8
20260507175903 57 106 2.6 7.8 0.00 0.00 0.00 58 1014.9
20260507175403 57 123 2.6 10.4 0.00 0.00 0.00 58 1014.8
20260507173404 57 133 2.6 10.4 0.00 0.00 0.00 58 1014.9
20260507172904 58 132 3.5 7.8 0.00 0.00 0.00 59 1015.0
20260507172405 58 117 2.6 7.8 0.00 0.00 0.00 59 1015.0
20260507170904 59 140 1.7 7.0 0.00 0.00 0.00 59 1014.9
20260507170404 59 150 1.7 4.3 0.00 0.00 0.00 57 1015.0
20260507165904 59 171 1.7 6.1 0.00 0.00 0.00 57 1014.9
20260507165404 59 136 1.7 8.7 0.00 0.01 0.00 61 1014.9
20260507163404 58 134 3.5 10.4 0.00 0.01 0.00 59 1015.0
20260507162903 58 101 4.3 11.3 0.00 0.01 0.00 60 1014.9
20260507162404 58 118 2.6 10.4 0.00 0.01 0.00 61 1015.0
20260507160904 56 128 2.6 7.0 0.00 0.01 0.00 65 1015.1
20260507160404 56 138 0.9 2.6 0.00 0.01 0.00 66 1015.0
20260507155904 56 138 0.9 7.0 0.00 0.01 0.00 68 1015.1
20260507155404 55 128 0.9 6.1 0.00 0.01 0.00 69 1015.1
20260507153903 55 85 0.9 5.2 0.00 0.01 0.00 72 1015.1
20260507153404 55 123 0.9 2.6 0.00 0.01 0.00 73 1015.2
20260507152904 55 141 0.9 4.3 0.00 0.01 0.00 72 1015.2
20260507150904 56 178 1.7 4.3 0.00 0.01 0.00 69 1015.4
20260507145904 56 165 1.7 5.2 0.00 0.01 0.00 69 1015.4
20260507145404 55 141 2.6 7.8 0.00 0.01 0.00 69 1015.4
20260507143904 55 156 4.3 10.4 0.00 0.02 0.00 68 1015.5
20260507143404 56 161 5.2 10.4 0.00 0.03 0.00 68 1015.7
20260507142903 56 157 2.6 8.7 0.00 0.03 0.00 69 1015.7
20260507142404 56 184 4.3 11.3 0.00 0.03 0.00 63 1015.7
20260507140903 57 173 2.6 7.0 0.00 0.03 0.00 64 1015.8
20260507140404 58 170 4.3 12.2 0.00 0.03 0.00 61 1015.9
20260507135904 58 162 5.2 13.0 0.00 0.03 0.00 62 1015.9
20260507133904 58 115 1.7 8.7 0.00 0.03 0.00 63 1015.9
20260507132904 58 168 3.5 8.7 0.00 0.03 0.00 60 1015.9
20260507132403 58 174 4.3 10.4 0.00 0.03 0.00 61 1016.0
20260507130404 57 165 2.6 6.1 0.00 0.03 0.00 63 1016.1
20260507125904 57 164 4.3 8.7 0.00 0.03 0.00 64 1016.1
20260507125404 56 190 1.7 6.1 0.00 0.03 0.00 65 1016.1
20260507123904 55 168 1.7 8.7 0.00 0.03 0.00 67 1016.2
20260507123404 55 165 3.5 8.7 0.00 0.03 0.00 67 1016.2
20260507122903 55 161 2.6 8.7 0.00 0.03 0.00 67 1016.3
20260507122404 55 188 1.7 7.8 0.00 0.03 0.00 67 1016.3
20260507120904 55 159 4.3 7.8 0.00 0.03 0.00 67 1016.3
20260507120404 55 157 4.3 10.4 0.00 0.03 0.00 65 1016.3
20260507115904 56 141 5.2 10.4 0.00 0.03 0.00 65 1016.3
20260507115404 56 171 1.7 7.8 0.00 0.03 0.00 65 1016.4
20260507113904 57 193 2.6 7.8 0.00 0.03 0.00 60 1016.4
20260507113404 57 177 4.3 11.3 0.00 0.03 0.00 58 1016.4
20260507110904 57 168 5.2 10.4 0.00 0.03 0.00 67 1016.3
20260507105403 56 164 1.7 7.8 0.00 0.03 0.00 75 1016.4
20260507103904 56 155 1.7 4.3 0.00 0.03 0.00 76 1016.5
20260507102904 56 195 1.7 6.1 0.00 0.03 0.00 77 1016.5
20260507100404 55 97 1.7 7.0 0.00 0.03 0.00 82 1016.5
20260507095904 55 144 0.9 8.7 0.00 0.03 0.00 83 1016.5
20260507095403 55 153 1.7 7.8 0.00 0.03 0.00 85 1016.5
20260507093904 52 161 1.7 5.2 0.00 0.03 0.00 91 1016.5
20260507092904 52 119 0.9 2.6 0.00 0.03 0.00 93 1016.5
20260507092404 52 137 0.9 6.1 0.00 0.03 0.00 93 1016.5
20260507090904 51 132 0.9 4.3 0.00 0.03 0.00 94 1016.5
20260507085904 51 149 0.9 2.6 0.00 0.03 0.00 94 1016.4
20260507085404 51 149 0.9 6.1 0.00 0.03 0.00 94 1016.5
20260507083904 50 117 1.7 6.1 0.00 0.03 0.00 94 1016.5
20260507082904 50 108 1.7 6.1 0.00 0.03 0.00 94 1016.4
20260507082404 50 127 0.9 5.2 0.00 0.03 0.00 94 1016.4
20260507080903 50 132 1.7 5.2 0.00 0.03 0.00 94 1016.5
20260507080404 50 116 0.9 6.1 0.00 0.03 0.00 94 1016.5
20260507075904 50 123 1.7 6.1 0.00 0.03 0.00 94 1016.4
20260507075404 50 110 1.7 5.2 0.00 0.03 0.00 94 1016.4
20260507073904 49 116 1.7 6.1 0.00 0.03 0.00 94 1016.3
20260507073404 49 132 1.7 5.2 0.00 0.03 0.00 94 1016.3
20260507072903 49 121 1.7 5.2 0.00 0.03 0.00 94 1016.3
20260507070904 49 142 1.7 4.3 0.00 0.03 0.00 94 1016.1
20260507070404 49 98 0.9 2.6 0.00 0.03 0.00 94 1016.1
20260507065904 49 95 1.7 2.6 0.00 0.03 0.00 94 1016.1
20260507065404 49 94 0.0 0.9 0.00 0.03 0.00 94 1016.1
20260507063903 48 94 0.0 0.0 0.00 0.03 0.00 94 1016.1
20260507063404 48 94 0.0 0.9 0.00 0.03 0.00 94 1016.1
20260507062904 48 92 0.0 2.6 0.00 0.03 0.00 94 1016.0
20260507062403 48 98 0.9 5.2 0.00 0.03 0.00 94 1015.9
20260507060403 47 118 1.7 5.2 0.00 0.03 0.00 94 1015.8
20260507055904 47 105 0.9 5.2 0.00 0.03 0.00 94 1015.8
20260507055405 47 117 0.9 2.6 0.00 0.03 0.00 94 1015.7
20260507053904 46 112 0.0 1.7 0.00 0.03 0.00 94 1015.7
20260507053403 46 113 0.9 2.6 0.00 0.03 0.00 94 1015.7
20260507052904 46 109 0.0 0.0 0.00 0.03 0.00 94 1015.7
20260507050904 46 109 0.0 1.7 0.00 0.03 0.00 94 1015.6
20260507050404 46 108 0.0 0.0 0.00 0.03 0.00 94 1015.5
20260507045904 46 108 0.9 1.7 0.00 0.03 0.00 94 1015.5
20260507045404 46 109 0.9 1.7 0.00 0.03 0.00 94 1015.5
20260507043904 45 107 0.0 2.6 0.00 0.03 0.00 94 1015.5
20260507042905 45 111 0.9 2.6 0.00 0.03 0.00 94 1015.4
20260507042403 46 111 0.0 1.7 0.00 0.03 0.00 94 1015.4
20260507040404 45 106 0.9 1.7 0.00 0.03 0.00 93 1015.4
20260507035904 45 110 0.0 0.0 0.00 0.03 0.00 94 1015.4
20260507035404 45 111 0.0 0.0 0.00 0.03 0.00 94 1015.3
20260507033905 45 113 0.0 0.0 0.00 0.03 0.00 93 1015.4
20260507032403 45 115 0.0 2.6 0.00 0.03 0.00 93 1015.3
20260507030903 45 112 0.0 1.7 0.00 0.03 0.00 93 1015.3
20260507030404 45 110 0.9 2.6 0.00 0.03 0.00 93 1015.3
20260507025904 45 113 0.9 2.6 0.00 0.03 0.00 93 1015.3
20260507023904 46 113 0.0 0.0 0.00 0.03 0.00 93 1015.2
20260507023404 46 113 0.0 0.0 0.00 0.03 0.00 93 1015.2
20260507022904 46 113 0.0 0.0 0.00 0.03 0.00 93 1015.2
20260507020903 46 115 0.0 0.0 0.00 0.03 0.00 93 1015.2
20260507020403 46 115 0.0 0.0 0.00 0.03 0.00 93 1015.3
20260507015904 46 116 0.0 0.0 0.00 0.03 0.00 93 1015.2
20260507015403 46 117 0.0 0.0 0.00 0.03 0.00 93 1015.2